iso_date,Year,Hour,Min,DOY,POS_DOY,Lat,Lon,BP,Ts,Ta,has_bp,has_ts,has_ta,BuoyID,Buoy_Type,Buoy_Owner,Logistics,Hemisphere
2021-11-23T16:01:03Z,2021,16,1,327.6674,327.6674,74.983,-1.343,1018.1,2.44,-999.0,yes,yes,no,300234068341290,BD2GHI,AOML,ALLIANCE,North
2021-11-23T16:59:57Z,2021,17,0,327.7083,327.7083,74.984,-1.361,1018.7,2.45,-999.0,yes,yes,no,300234068341290,BD2GHI,AOML,ALLIANCE,North
2021-11-23T18:02:00Z,2021,18,2,327.7514,327.7514,74.984,-1.381,1019.4,2.44,-999.0,yes,yes,no,300234068341290,BD2GHI,AOML,ALLIANCE,North
2021-11-23T19:00:02Z,2021,19,0,327.7917,327.7917,74.983,-1.391,1019.7,2.46,-999.0,yes,yes,no,300234068341290,BD2GHI,AOML,ALLIANCE,North
2021-11-23T20:00:57Z,2021,20,1,327.834,327.834,74.981,-1.404,1020.0,2.45,-999.0,yes,yes,no,300234068341290,BD2GHI,AOML,ALLIANCE,North
2021-11-23T21:00:00Z,2021,21,0,327.875,327.875,74.98,-1.42,1020.4,2.44,-999.0,yes,yes,no,300234068341290,BD2GHI,AOML,ALLIANCE,North
2021-11-23T22:00:02Z,2021,22,0,327.9167,327.9167,74.979,-1.437,1020.0,2.45,-999.0,yes,yes,no,300234068341290,BD2GHI,AOML,ALLIANCE,North
2021-11-23T22:59:57Z,2021,23,0,327.9583,327.9583,74.976,-1.453,1020.3,2.46,-999.0,yes,yes,no,300234068341290,BD2GHI,AOML,ALLIANCE,North
2021-11-24T00:03:01Z,2021,0,3,328.0021,328.0021,74.973,-1.465,1020.3,2.45,-999.0,yes,yes,no,300234068341290,BD2GHI,AOML,ALLIANCE,North
2021-11-24T01:02:03Z,2021,1,2,328.0431,328.0431,74.972,-1.473,1020.1,2.45,-999.0,yes,yes,no,300234068341290,BD2GHI,AOML,ALLIANCE,North
2021-11-24T01:59:57Z,2021,2,0,328.0833,328.0833,74.971,-1.483,1019.7,2.44,-999.0,yes,yes,no,300234068341290,BD2GHI,AOML,ALLIANCE,North
2021-11-24T03:00:00Z,2021,3,0,328.125,328.125,74.97,-1.491,1019.4,2.44,-999.0,yes,yes,no,300234068341290,BD2GHI,AOML,ALLIANCE,North
2021-11-24T04:00:02Z,2021,4,0,328.1667,328.1667,74.968,-1.502,1018.9,2.42,-999.0,yes,yes,no,300234068341290,BD2GHI,AOML,ALLIANCE,North
2021-11-24T05:00:57Z,2021,5,1,328.209,328.209,74.961,-1.52,1018.7,2.36,-999.0,yes,yes,no,300234068341290,BD2GHI,AOML,ALLIANCE,North
2021-11-24T06:02:00Z,2021,6,2,328.2514,328.2514,74.964,-1.525,1018.5,2.28,-999.0,yes,yes,no,300234068341290,BD2GHI,AOML,ALLIANCE,North
2021-11-24T07:03:56Z,2021,7,4,328.2944,328.2944,-90.0,-180.0,1018.3,2.36,-999.0,yes,yes,no,300234068341290,BD2GHI,AOML,ALLIANCE,North
2021-11-24T08:03:59Z,2021,8,4,328.3361,328.3361,-90.0,-180.0,1018.4,2.39,-999.0,yes,yes,no,300234068341290,BD2GHI,AOML,ALLIANCE,North
2021-11-24T09:04:01Z,2021,9,4,328.3778,328.3778,74.961,-1.563,1018.2,2.43,-999.0,yes,yes,no,300234068341290,BD2GHI,AOML,ALLIANCE,North
2021-11-24T10:00:02Z,2021,10,0,328.4167,328.4167,74.961,-1.573,1018.0,2.42,-999.0,yes,yes,no,300234068341290,BD2GHI,AOML,ALLIANCE,North
2021-11-24T10:59:57Z,2021,11,0,328.4583,328.4583,74.961,-1.584,1017.5,2.44,-999.0,yes,yes,no,300234068341290,BD2GHI,AOML,ALLIANCE,North
2021-11-24T12:04:01Z,2021,12,4,328.5028,328.5028,-90.0,-180.0,1017.3,2.43,-999.0,yes,yes,no,300234068341290,BD2GHI,AOML,ALLIANCE,North
2021-11-24T13:03:56Z,2021,13,4,328.5444,328.5444,74.959,-1.609,1016.9,2.43,-999.0,yes,yes,no,300234068341290,BD2GHI,AOML,ALLIANCE,North
2021-11-24T13:59:57Z,2021,14,0,328.5833,328.5833,74.958,-1.622,1016.7,2.41,-999.0,yes,yes,no,300234068341290,BD2GHI,AOML,ALLIANCE,North
2021-11-24T15:04:01Z,2021,15,4,328.6278,328.6278,-90.0,-180.0,1016.6,2.41,-999.0,yes,yes,no,300234068341290,BD2GHI,AOML,ALLIANCE,North
2021-11-24T16:03:56Z,2021,16,4,328.6694,328.6694,-90.0,-180.0,1016.3,2.42,-999.0,yes,yes,no,300234068341290,BD2GHI,AOML,ALLIANCE,North
2021-11-24T18:04:01Z,2021,18,4,328.7528,328.7528,-90.0,-180.0,1015.8,2.4,-999.0,yes,yes,no,300234068341290,BD2GHI,AOML,ALLIANCE,North
2021-11-24T19:00:02Z,2021,19,0,328.7917,328.7917,74.952,-1.675,1015.7,2.43,-999.0,yes,yes,no,300234068341290,BD2GHI,AOML,ALLIANCE,North
2021-11-24T19:59:57Z,2021,20,0,328.8333,328.8333,74.951,-1.681,1015.1,2.42,-999.0,yes,yes,no,300234068341290,BD2GHI,AOML,ALLIANCE,North
2021-11-24T21:00:00Z,2021,21,0,328.875,328.875,74.948,-1.689,1014.6,2.41,-999.0,yes,yes,no,300234068341290,BD2GHI,AOML,ALLIANCE,North
2021-11-24T22:00:02Z,2021,22,0,328.9167,328.9167,74.946,-1.694,1014.3,2.42,-999.0,yes,yes,no,300234068341290,BD2GHI,AOML,ALLIANCE,North
2021-11-24T23:03:59Z,2021,23,4,328.9611,328.9611,-90.0,-180.0,1013.5,2.42,-999.0,yes,yes,no,300234068341290,BD2GHI,AOML,ALLIANCE,North
2021-11-25T00:04:01Z,2021,0,4,329.0028,329.0028,74.94,-1.699,1012.9,2.41,-999.0,yes,yes,no,300234068341290,BD2GHI,AOML,ALLIANCE,North
2021-11-25T01:03:56Z,2021,1,4,329.0444,329.0444,74.938,-1.705,1012.3,2.39,-999.0,yes,yes,no,300234068341290,BD2GHI,AOML,ALLIANCE,North
2021-11-25T01:59:57Z,2021,2,0,329.0833,329.0833,74.936,-1.709,1011.9,2.39,-999.0,yes,yes,no,300234068341290,BD2GHI,AOML,ALLIANCE,North
2021-11-25T03:00:00Z,2021,3,0,329.125,329.125,74.934,-1.708,1011.0,2.4,-999.0,yes,yes,no,300234068341290,BD2GHI,AOML,ALLIANCE,North
2021-11-25T04:03:56Z,2021,4,4,329.1694,329.1694,-90.0,-180.0,1010.4,2.38,-999.0,yes,yes,no,300234068341290,BD2GHI,AOML,ALLIANCE,North
2021-11-25T05:03:59Z,2021,5,4,329.2111,329.2111,74.926,-1.708,1009.7,2.35,-999.0,yes,yes,no,300234068341290,BD2GHI,AOML,ALLIANCE,North
2021-11-25T06:00:00Z,2021,6,0,329.25,329.25,74.923,-1.712,1009.2,2.37,-999.0,yes,yes,no,300234068341290,BD2GHI,AOML,ALLIANCE,North
2021-11-25T07:00:02Z,2021,7,0,329.2917,329.2917,74.92,-1.711,1008.7,2.36,-999.0,yes,yes,no,300234068341290,BD2GHI,AOML,ALLIANCE,North
2021-11-25T07:59:57Z,2021,8,0,329.3333,329.3333,74.916,-1.71,1008.7,2.36,-999.0,yes,yes,no,300234068341290,BD2GHI,AOML,ALLIANCE,North
2021-11-25T09:01:00Z,2021,9,1,329.3757,329.3757,74.913,-1.711,1008.4,2.37,-999.0,yes,yes,no,300234068341290,BD2GHI,AOML,ALLIANCE,North
2021-11-25T10:00:02Z,2021,10,0,329.4167,329.4167,74.911,-1.709,1008.0,2.37,-999.0,yes,yes,no,300234068341290,BD2GHI,AOML,ALLIANCE,North
2021-11-25T12:00:00Z,2021,12,0,329.5,329.5,74.905,-1.713,1007.3,2.33,-999.0,yes,yes,no,300234068341290,BD2GHI,AOML,ALLIANCE,North
2021-11-25T13:00:02Z,2021,13,0,329.5417,329.5417,74.903,-1.716,1006.9,2.35,-999.0,yes,yes,no,300234068341290,BD2GHI,AOML,ALLIANCE,North
2021-11-25T13:59:57Z,2021,14,0,329.5833,329.5833,74.901,-1.716,1006.8,2.35,-999.0,yes,yes,no,300234068341290,BD2GHI,AOML,ALLIANCE,North
2021-11-25T15:00:00Z,2021,15,0,329.625,329.625,74.899,-1.713,1006.5,2.35,-999.0,yes,yes,no,300234068341290,BD2GHI,AOML,ALLIANCE,North
2021-11-25T18:00:00Z,2021,18,0,329.75,329.75,74.894,-1.702,1006.7,2.36,-999.0,yes,yes,no,300234068341290,BD2GHI,AOML,ALLIANCE,North
2021-11-25T19:00:02Z,2021,19,0,329.7917,329.7917,74.892,-1.701,1006.7,2.34,-999.0,yes,yes,no,300234068341290,BD2GHI,AOML,ALLIANCE,North
2021-11-25T20:00:57Z,2021,20,1,329.834,329.834,74.891,-1.701,1006.8,2.35,-999.0,yes,yes,no,300234068341290,BD2GHI,AOML,ALLIANCE,North
2021-11-25T21:00:00Z,2021,21,0,329.875,329.875,74.889,-1.705,1007.0,2.32,-999.0,yes,yes,no,300234068341290,BD2GHI,AOML,ALLIANCE,North
2021-11-25T22:01:03Z,2021,22,1,329.9174,329.9174,74.887,-1.706,1006.8,2.32,-999.0,yes,yes,no,300234068341290,BD2GHI,AOML,ALLIANCE,North
2021-11-25T22:59:57Z,2021,23,0,329.9583,329.9583,74.886,-1.71,1006.8,2.34,-999.0,yes,yes,no,300234068341290,BD2GHI,AOML,ALLIANCE,North
2021-11-26T00:00:00Z,2021,0,0,330.0,330.0,74.885,-1.714,1006.6,2.31,-999.0,yes,yes,no,300234068341290,BD2GHI,AOML,ALLIANCE,North
2021-11-26T01:00:02Z,2021,1,0,330.0417,330.0417,74.884,-1.715,1006.6,2.33,-999.0,yes,yes,no,300234068341290,BD2GHI,AOML,ALLIANCE,North
2021-11-26T02:00:57Z,2021,2,1,330.084,330.084,74.884,-1.715,1006.3,2.33,-999.0,yes,yes,no,300234068341290,BD2GHI,AOML,ALLIANCE,North
2021-11-26T03:01:00Z,2021,3,1,330.1257,330.1257,74.882,-1.714,1006.2,2.33,-999.0,yes,yes,no,300234068341290,BD2GHI,AOML,ALLIANCE,North
2021-11-26T04:01:03Z,2021,4,1,330.1674,330.1674,74.882,-1.719,1006.4,2.32,-999.0,yes,yes,no,300234068341290,BD2GHI,AOML,ALLIANCE,North
2021-11-26T04:59:57Z,2021,5,0,330.2083,330.2083,74.879,-1.729,1006.9,2.35,-999.0,yes,yes,no,300234068341290,BD2GHI,AOML,ALLIANCE,North
2021-11-26T06:00:00Z,2021,6,0,330.25,330.25,74.877,-1.734,1007.3,2.34,-999.0,yes,yes,no,300234068341290,BD2GHI,AOML,ALLIANCE,North
2021-11-26T07:01:03Z,2021,7,1,330.2924,330.2924,74.876,-1.745,1008.0,2.36,-999.0,yes,yes,no,300234068341290,BD2GHI,AOML,ALLIANCE,North
2021-11-26T08:00:57Z,2021,8,1,330.334,330.334,74.875,-1.761,1008.8,2.37,-999.0,yes,yes,no,300234068341290,BD2GHI,AOML,ALLIANCE,North
2021-11-26T09:00:00Z,2021,9,0,330.375,330.375,74.874,-1.771,1009.2,2.36,-999.0,yes,yes,no,300234068341290,BD2GHI,AOML,ALLIANCE,North
2021-11-26T10:01:03Z,2021,10,1,330.4174,330.4174,74.875,-1.782,1010.0,2.35,-999.0,yes,yes,no,300234068341290,BD2GHI,AOML,ALLIANCE,North
2021-11-26T12:02:00Z,2021,12,2,330.5014,330.5014,74.871,-1.803,1010.6,2.18,-999.0,yes,yes,no,300234068341290,BD2GHI,AOML,ALLIANCE,North
2021-11-26T13:00:02Z,2021,13,0,330.5417,330.5417,74.871,-1.814,1010.4,2.05,-999.0,yes,yes,no,300234068341290,BD2GHI,AOML,ALLIANCE,North
2021-11-26T14:00:57Z,2021,14,1,330.584,330.584,74.87,-1.823,1010.6,1.94,-999.0,yes,yes,no,300234068341290,BD2GHI,AOML,ALLIANCE,North
2021-11-26T15:00:00Z,2021,15,0,330.625,330.625,74.869,-1.832,1010.8,1.87,-999.0,yes,yes,no,300234068341290,BD2GHI,AOML,ALLIANCE,North
2021-11-26T16:00:02Z,2021,16,0,330.6667,330.6667,74.867,-1.839,1010.4,1.79,-999.0,yes,yes,no,300234068341290,BD2GHI,AOML,ALLIANCE,North
2021-11-26T17:00:57Z,2021,17,1,330.709,330.709,74.866,-1.843,1010.5,1.72,-999.0,yes,yes,no,300234068341290,BD2GHI,AOML,ALLIANCE,North
2021-11-26T18:01:00Z,2021,18,1,330.7507,330.7507,74.863,-1.856,1010.3,1.65,-999.0,yes,yes,no,300234068341290,BD2GHI,AOML,ALLIANCE,North
2021-11-26T19:01:03Z,2021,19,1,330.7924,330.7924,74.862,-1.868,1010.2,1.62,-999.0,yes,yes,no,300234068341290,BD2GHI,AOML,ALLIANCE,North
2021-11-26T19:59:57Z,2021,20,0,330.8333,330.8333,74.86,-1.884,1010.4,1.64,-999.0,yes,yes,no,300234068341290,BD2GHI,AOML,ALLIANCE,North
2021-11-26T21:01:00Z,2021,21,1,330.8757,330.8757,74.858,-1.896,1010.2,1.65,-999.0,yes,yes,no,300234068341290,BD2GHI,AOML,ALLIANCE,North
2021-11-26T22:03:56Z,2021,22,4,330.9194,330.9194,74.859,-1.905,1010.1,1.63,-999.0,yes,yes,no,300234068341290,BD2GHI,AOML,ALLIANCE,North
2021-11-26T23:03:59Z,2021,23,4,330.9611,330.9611,74.859,-1.911,1010.0,1.62,-999.0,yes,yes,no,300234068341290,BD2GHI,AOML,ALLIANCE,North
2021-11-27T00:00:00Z,2021,0,0,331.0,331.0,74.857,-1.911,1009.5,1.58,-999.0,yes,yes,no,300234068341290,BD2GHI,AOML,ALLIANCE,North
2021-11-27T01:00:02Z,2021,1,0,331.0417,331.0417,74.857,-1.916,1009.1,1.48,-999.0,yes,yes,no,300234068341290,BD2GHI,AOML,ALLIANCE,North
2021-11-27T01:59:57Z,2021,2,0,331.0833,331.0833,74.858,-1.923,1008.9,1.31,-999.0,yes,yes,no,300234068341290,BD2GHI,AOML,ALLIANCE,North
2021-11-27T03:00:00Z,2021,3,0,331.125,331.125,74.858,-1.919,1008.8,1.27,-999.0,yes,yes,no,300234068341290,BD2GHI,AOML,ALLIANCE,North
2021-11-27T04:03:56Z,2021,4,4,331.1694,331.1694,74.857,-1.92,1008.4,1.28,-999.0,yes,yes,no,300234068341290,BD2GHI,AOML,ALLIANCE,North
2021-11-27T05:00:57Z,2021,5,1,331.209,331.209,74.852,-1.932,1008.4,1.22,-999.0,yes,yes,no,300234068341290,BD2GHI,AOML,ALLIANCE,North
2021-11-27T06:01:00Z,2021,6,1,331.2507,331.2507,74.85,-1.922,1008.4,1.07,-999.0,yes,yes,no,300234068341290,BD2GHI,AOML,ALLIANCE,North
2021-11-27T07:03:56Z,2021,7,4,331.2944,331.2944,74.848,-1.926,1008.3,1.02,-999.0,yes,yes,no,300234068341290,BD2GHI,AOML,ALLIANCE,North
2021-11-27T08:03:59Z,2021,8,4,331.3361,331.3361,74.845,-1.932,1008.3,0.96,-999.0,yes,yes,no,300234068341290,BD2GHI,AOML,ALLIANCE,North
2021-11-27T09:04:01Z,2021,9,4,331.3778,331.3778,74.843,-1.94,1008.1,0.97,-999.0,yes,yes,no,300234068341290,BD2GHI,AOML,ALLIANCE,North
2021-11-27T10:03:56Z,2021,10,4,331.4194,331.4194,74.847,-1.945,1008.0,0.96,-999.0,yes,yes,no,300234068341290,BD2GHI,AOML,ALLIANCE,North
2021-11-27T11:03:59Z,2021,11,4,331.4611,331.4611,74.845,-1.954,1007.9,0.95,-999.0,yes,yes,no,300234068341290,BD2GHI,AOML,ALLIANCE,North
2021-11-27T13:00:02Z,2021,13,0,331.5417,331.5417,74.845,-1.96,1007.2,0.95,-999.0,yes,yes,no,300234068341290,BD2GHI,AOML,ALLIANCE,North
2021-11-27T13:59:57Z,2021,14,0,331.5833,331.5833,74.845,-1.961,1006.7,0.94,-999.0,yes,yes,no,300234068341290,BD2GHI,AOML,ALLIANCE,North
2021-11-27T15:02:00Z,2021,15,2,331.6264,331.6264,74.843,-1.965,1006.4,0.93,-999.0,yes,yes,no,300234068341290,BD2GHI,AOML,ALLIANCE,North
2021-11-27T16:00:02Z,2021,16,0,331.6667,331.6667,74.844,-1.964,1005.7,0.94,-999.0,yes,yes,no,300234068341290,BD2GHI,AOML,ALLIANCE,North
2021-11-27T17:00:57Z,2021,17,1,331.709,331.709,74.842,-1.957,1004.7,0.92,-999.0,yes,yes,no,300234068341290,BD2GHI,AOML,ALLIANCE,North
2021-11-27T18:02:00Z,2021,18,2,331.7514,331.7514,74.841,-1.954,1003.9,0.93,-999.0,yes,yes,no,300234068341290,BD2GHI,AOML,ALLIANCE,North
2021-11-27T19:03:04Z,2021,19,3,331.7938,331.7938,74.839,-1.954,1002.7,0.94,-999.0,yes,yes,no,300234068341290,BD2GHI,AOML,ALLIANCE,North
2021-11-27T19:59:57Z,2021,20,0,331.8333,331.8333,74.837,-1.955,1002.2,0.93,-999.0,yes,yes,no,300234068341290,BD2GHI,AOML,ALLIANCE,North
2021-11-27T21:00:00Z,2021,21,0,331.875,331.875,74.837,-1.969,1002.7,0.93,-999.0,yes,yes,no,300234068341290,BD2GHI,AOML,ALLIANCE,North
2021-11-27T22:02:03Z,2021,22,2,331.9181,331.9181,74.834,-1.997,1003.3,0.93,-999.0,yes,yes,no,300234068341290,BD2GHI,AOML,ALLIANCE,North
2021-11-27T23:03:59Z,2021,23,4,331.9611,331.9611,74.834,-2.011,1003.7,0.92,-999.0,yes,yes,no,300234068341290,BD2GHI,AOML,ALLIANCE,North
2021-11-28T00:04:01Z,2021,0,4,332.0028,332.0028,74.834,-2.017,1003.7,0.93,-999.0,yes,yes,no,300234068341290,BD2GHI,AOML,ALLIANCE,North
2021-11-28T01:03:56Z,2021,1,4,332.0444,332.0444,74.838,-2.028,1003.9,0.91,-999.0,yes,yes,no,300234068341290,BD2GHI,AOML,ALLIANCE,North
2021-11-28T02:02:58Z,2021,2,3,332.0854,332.0854,74.839,-2.038,1004.3,0.91,-999.0,yes,yes,no,300234068341290,BD2GHI,AOML,ALLIANCE,North
2021-11-28T03:00:00Z,2021,3,0,332.125,332.125,74.841,-2.042,1004.3,0.89,-999.0,yes,yes,no,300234068341290,BD2GHI,AOML,ALLIANCE,North
2021-11-28T04:00:02Z,2021,4,0,332.1667,332.1667,74.842,-2.041,1004.8,0.91,-999.0,yes,yes,no,300234068341290,BD2GHI,AOML,ALLIANCE,North
2021-11-28T05:00:57Z,2021,5,1,332.209,332.209,74.843,-2.034,1004.4,0.91,-999.0,yes,yes,no,300234068341290,BD2GHI,AOML,ALLIANCE,North
2021-11-28T06:04:01Z,2021,6,4,332.2528,332.2528,74.842,-2.03,1004.6,0.92,-999.0,yes,yes,no,300234068341290,BD2GHI,AOML,ALLIANCE,North
2021-11-28T07:03:04Z,2021,7,3,332.2938,332.2938,74.837,-2.028,1004.6,0.91,-999.0,yes,yes,no,300234068341290,BD2GHI,AOML,ALLIANCE,North
2021-11-28T07:59:57Z,2021,8,0,332.3333,332.3333,74.832,-2.035,1004.4,0.91,-999.0,yes,yes,no,300234068341290,BD2GHI,AOML,ALLIANCE,North
2021-11-28T09:01:00Z,2021,9,1,332.3757,332.3757,74.83,-2.056,1004.8,0.9,-999.0,yes,yes,no,300234068341290,BD2GHI,AOML,ALLIANCE,North
2021-11-28T10:01:03Z,2021,10,1,332.4174,332.4174,74.829,-2.063,1004.8,0.9,-999.0,yes,yes,no,300234068341290,BD2GHI,AOML,ALLIANCE,North
2021-11-28T11:03:59Z,2021,11,4,332.4611,332.4611,74.827,-2.09,1004.5,0.88,-999.0,yes,yes,no,300234068341290,BD2GHI,AOML,ALLIANCE,North
2021-11-28T12:00:00Z,2021,12,0,332.5,332.5,74.821,-2.116,1003.9,0.89,-999.0,yes,yes,no,300234068341290,BD2GHI,AOML,ALLIANCE,North
2021-11-28T13:01:03Z,2021,13,1,332.5424,332.5424,74.822,-2.121,1003.2,0.89,-999.0,yes,yes,no,300234068341290,BD2GHI,AOML,ALLIANCE,North
2021-11-28T13:59:57Z,2021,14,0,332.5833,332.5833,74.823,-2.126,1002.6,0.88,-999.0,yes,yes,no,300234068341290,BD2GHI,AOML,ALLIANCE,North
2021-11-28T15:01:00Z,2021,15,1,332.6257,332.6257,74.823,-2.126,1002.8,0.84,-999.0,yes,yes,no,300234068341290,BD2GHI,AOML,ALLIANCE,North
2021-11-28T16:03:56Z,2021,16,4,332.6694,332.6694,-90.0,-180.0,1003.2,0.85,-999.0,yes,yes,no,300234068341290,BD2GHI,AOML,ALLIANCE,North
2021-11-28T17:03:59Z,2021,17,4,332.7111,332.7111,74.824,-2.129,1003.6,0.85,-999.0,yes,yes,no,300234068341290,BD2GHI,AOML,ALLIANCE,North
2021-11-28T18:00:00Z,2021,18,0,332.75,332.75,74.824,-2.131,1003.9,0.84,-999.0,yes,yes,no,300234068341290,BD2GHI,AOML,ALLIANCE,North
2021-11-28T19:00:02Z,2021,19,0,332.7917,332.7917,74.824,-2.135,1004.6,0.84,-999.0,yes,yes,no,300234068341290,BD2GHI,AOML,ALLIANCE,North
2021-11-28T20:03:59Z,2021,20,4,332.8361,332.8361,-90.0,-180.0,1005.0,0.83,-999.0,yes,yes,no,300234068341290,BD2GHI,AOML,ALLIANCE,North
2021-11-28T21:02:00Z,2021,21,2,332.8764,332.8764,74.824,-2.141,1004.8,0.82,-999.0,yes,yes,no,300234068341290,BD2GHI,AOML,ALLIANCE,North
2021-11-28T22:00:02Z,2021,22,0,332.9167,332.9167,74.823,-2.147,1004.8,0.82,-999.0,yes,yes,no,300234068341290,BD2GHI,AOML,ALLIANCE,North
2021-11-28T22:59:57Z,2021,23,0,332.9583,332.9583,74.823,-2.152,1005.3,0.82,-999.0,yes,yes,no,300234068341290,BD2GHI,AOML,ALLIANCE,North
2021-11-29T00:00:00Z,2021,0,0,333.0,333.0,74.824,-2.143,1005.5,0.83,-999.0,yes,yes,no,300234068341290,BD2GHI,AOML,ALLIANCE,North
2021-11-29T01:03:56Z,2021,1,4,333.0444,333.0444,74.825,-2.16,1005.4,0.82,-999.0,yes,yes,no,300234068341290,BD2GHI,AOML,ALLIANCE,North
2021-11-29T02:03:59Z,2021,2,4,333.0861,333.0861,74.823,-2.172,1005.0,0.81,-999.0,yes,yes,no,300234068341290,BD2GHI,AOML,ALLIANCE,North
2021-11-29T03:03:01Z,2021,3,3,333.1271,333.1271,74.824,-2.18,1004.9,0.81,-999.0,yes,yes,no,300234068341290,BD2GHI,AOML,ALLIANCE,North
2021-11-29T04:01:03Z,2021,4,1,333.1674,333.1674,74.824,-2.183,1004.5,0.81,-999.0,yes,yes,no,300234068341290,BD2GHI,AOML,ALLIANCE,North
2021-11-29T04:59:57Z,2021,5,0,333.2083,333.2083,74.823,-2.189,1004.5,0.81,-999.0,yes,yes,no,300234068341290,BD2GHI,AOML,ALLIANCE,North
2021-11-29T06:04:01Z,2021,6,4,333.2528,333.2528,-90.0,-180.0,1004.5,0.81,-999.0,yes,yes,no,300234068341290,BD2GHI,AOML,ALLIANCE,North
2021-11-29T07:03:56Z,2021,7,4,333.2944,333.2944,-90.0,-180.0,1004.8,0.83,-999.0,yes,yes,no,300234068341290,BD2GHI,AOML,ALLIANCE,North
2021-11-29T08:03:59Z,2021,8,4,333.3361,333.3361,74.814,-2.213,1005.1,0.84,-999.0,yes,yes,no,300234068341290,BD2GHI,AOML,ALLIANCE,North
2021-11-29T09:01:00Z,2021,9,1,333.3757,333.3757,74.805,-2.241,1005.6,0.85,-999.0,yes,yes,no,300234068341290,BD2GHI,AOML,ALLIANCE,North
2021-11-29T10:02:03Z,2021,10,2,333.4181,333.4181,74.812,-2.247,1005.3,0.85,-999.0,yes,yes,no,300234068341290,BD2GHI,AOML,ALLIANCE,North
2021-11-29T11:03:59Z,2021,11,4,333.4611,333.4611,74.807,-2.258,1005.4,0.86,-999.0,yes,yes,no,300234068341290,BD2GHI,AOML,ALLIANCE,North
2021-11-29T13:00:02Z,2021,13,0,333.5417,333.5417,74.805,-2.286,1005.0,0.89,-999.0,yes,yes,no,300234068341290,BD2GHI,AOML,ALLIANCE,North
2021-11-29T13:59:57Z,2021,14,0,333.5833,333.5833,74.805,-2.289,1004.8,0.9,-999.0,yes,yes,no,300234068341290,BD2GHI,AOML,ALLIANCE,North
2021-11-29T15:04:01Z,2021,15,4,333.6278,333.6278,-90.0,-180.0,1004.9,0.91,-999.0,yes,yes,no,300234068341290,BD2GHI,AOML,ALLIANCE,North
2021-11-29T16:03:56Z,2021,16,4,333.6694,333.6694,-90.0,-180.0,1004.6,0.92,-999.0,yes,yes,no,300234068341290,BD2GHI,AOML,ALLIANCE,North
2021-11-29T17:03:59Z,2021,17,4,333.7111,333.7111,-90.0,-180.0,1004.2,0.95,-999.0,yes,yes,no,300234068341290,BD2GHI,AOML,ALLIANCE,North
2021-11-29T18:04:01Z,2021,18,4,333.7528,333.7528,-90.0,-180.0,1004.1,0.97,-999.0,yes,yes,no,300234068341290,BD2GHI,AOML,ALLIANCE,North
2021-11-29T19:03:56Z,2021,19,4,333.7944,333.7944,-90.0,-180.0,1004.0,0.96,-999.0,yes,yes,no,300234068341290,BD2GHI,AOML,ALLIANCE,North
2021-11-29T20:03:59Z,2021,20,4,333.8361,333.8361,74.803,-2.336,1004.0,0.95,-999.0,yes,yes,no,300234068341290,BD2GHI,AOML,ALLIANCE,North
2021-11-29T21:00:00Z,2021,21,0,333.875,333.875,74.805,-2.349,1004.1,0.95,-999.0,yes,yes,no,300234068341290,BD2GHI,AOML,ALLIANCE,North
2021-11-29T22:00:02Z,2021,22,0,333.9167,333.9167,74.807,-2.358,1004.3,0.95,-999.0,yes,yes,no,300234068341290,BD2GHI,AOML,ALLIANCE,North
2021-11-29T22:59:57Z,2021,23,0,333.9583,333.9583,74.809,-2.37,1004.2,0.94,-999.0,yes,yes,no,300234068341290,BD2GHI,AOML,ALLIANCE,North
2021-11-30T00:04:01Z,2021,0,4,334.0028,334.0028,74.811,-2.364,1003.9,0.96,-999.0,yes,yes,no,300234068341290,BD2GHI,AOML,ALLIANCE,North
2021-11-30T01:03:56Z,2021,1,4,334.0444,334.0444,74.812,-2.38,1003.8,0.96,-999.0,yes,yes,no,300234068341290,BD2GHI,AOML,ALLIANCE,North
2021-11-30T01:59:57Z,2021,2,0,334.0833,334.0833,74.811,-2.383,1003.7,0.95,-999.0,yes,yes,no,300234068341290,BD2GHI,AOML,ALLIANCE,North
2021-11-30T03:04:01Z,2021,3,4,334.1278,334.1278,74.811,-2.384,1003.5,0.96,-999.0,yes,yes,no,300234068341290,BD2GHI,AOML,ALLIANCE,North
2021-11-30T04:03:56Z,2021,4,4,334.1694,334.1694,-90.0,-180.0,1003.4,0.95,-999.0,yes,yes,no,300234068341290,BD2GHI,AOML,ALLIANCE,North
2021-11-30T05:03:59Z,2021,5,4,334.2111,334.2111,74.81,-2.398,1003.5,0.95,-999.0,yes,yes,no,300234068341290,BD2GHI,AOML,ALLIANCE,North
2021-11-30T06:04:01Z,2021,6,4,334.2528,334.2528,-90.0,-180.0,1003.3,0.96,-999.0,yes,yes,no,300234068341290,BD2GHI,AOML,ALLIANCE,North
2021-11-30T07:01:03Z,2021,7,1,334.2924,334.2924,74.808,-2.404,1003.4,0.95,-999.0,yes,yes,no,300234068341290,BD2GHI,AOML,ALLIANCE,North
2021-11-30T07:59:57Z,2021,8,0,334.3333,334.3333,74.807,-2.403,1003.7,0.95,-999.0,yes,yes,no,300234068341290,BD2GHI,AOML,ALLIANCE,North
2021-11-30T09:00:00Z,2021,9,0,334.375,334.375,74.806,-2.405,1003.5,0.95,-999.0,yes,yes,no,300234068341290,BD2GHI,AOML,ALLIANCE,North
2021-11-30T10:01:03Z,2021,10,1,334.4174,334.4174,74.805,-2.409,1003.2,0.95,-999.0,yes,yes,no,300234068341290,BD2GHI,AOML,ALLIANCE,North
2021-11-30T12:00:00Z,2021,12,0,334.5,334.5,74.803,-2.422,1003.2,0.95,-999.0,yes,yes,no,300234068341290,BD2GHI,AOML,ALLIANCE,North
2021-11-30T13:02:03Z,2021,13,2,334.5431,334.5431,74.806,-2.422,1003.2,0.94,-999.0,yes,yes,no,300234068341290,BD2GHI,AOML,ALLIANCE,North
2021-11-30T13:59:57Z,2021,14,0,334.5833,334.5833,74.806,-2.421,1003.2,0.94,-999.0,yes,yes,no,300234068341290,BD2GHI,AOML,ALLIANCE,North
2021-11-30T15:04:01Z,2021,15,4,334.6278,334.6278,-90.0,-180.0,1002.8,0.94,-999.0,yes,yes,no,300234068341290,BD2GHI,AOML,ALLIANCE,North
2021-11-30T16:03:04Z,2021,16,3,334.6688,334.6688,74.814,-2.419,1002.7,0.93,-999.0,yes,yes,no,300234068341290,BD2GHI,AOML,ALLIANCE,North
2021-11-30T17:02:58Z,2021,17,3,334.7104,334.7104,74.806,-2.404,1002.7,0.93,-999.0,yes,yes,no,300234068341290,BD2GHI,AOML,ALLIANCE,North
2021-11-30T18:00:00Z,2021,18,0,334.75,334.75,74.805,-2.406,1002.5,0.93,-999.0,yes,yes,no,300234068341290,BD2GHI,AOML,ALLIANCE,North
2021-11-30T19:00:02Z,2021,19,0,334.7917,334.7917,74.805,-2.405,1003.2,0.93,-999.0,yes,yes,no,300234068341290,BD2GHI,AOML,ALLIANCE,North
2021-11-30T19:59:57Z,2021,20,0,334.8333,334.8333,74.805,-2.402,1003.6,0.91,-999.0,yes,yes,no,300234068341290,BD2GHI,AOML,ALLIANCE,North
2021-11-30T21:01:00Z,2021,21,1,334.8757,334.8757,74.806,-2.399,1004.2,0.89,-999.0,yes,yes,no,300234068341290,BD2GHI,AOML,ALLIANCE,North
2021-11-30T22:00:02Z,2021,22,0,334.9167,334.9167,74.807,-2.404,1004.9,0.91,-999.0,yes,yes,no,300234068341290,BD2GHI,AOML,ALLIANCE,North
2021-11-30T22:59:57Z,2021,23,0,334.9583,334.9583,74.808,-2.411,1005.7,0.92,-999.0,yes,yes,no,300234068341290,BD2GHI,AOML,ALLIANCE,North
2021-12-01T00:00:00Z,2021,0,0,335.0,335.0,74.809,-2.412,1006.6,0.9,-999.0,yes,yes,no,300234068341290,BD2GHI,AOML,ALLIANCE,North
2021-12-01T01:03:56Z,2021,1,4,335.0444,335.0444,74.814,-2.416,1007.6,0.9,-999.0,yes,yes,no,300234068341290,BD2GHI,AOML,ALLIANCE,North
2021-12-01T01:59:57Z,2021,2,0,335.0833,335.0833,74.817,-2.414,1008.5,0.9,-999.0,yes,yes,no,300234068341290,BD2GHI,AOML,ALLIANCE,North
2021-12-01T03:04:01Z,2021,3,4,335.1278,335.1278,-90.0,-180.0,1009.5,0.9,-999.0,yes,yes,no,300234068341290,BD2GHI,AOML,ALLIANCE,North
2021-12-01T04:03:56Z,2021,4,4,335.1694,335.1694,74.822,-2.402,1010.6,0.9,-999.0,yes,yes,no,300234068341290,BD2GHI,AOML,ALLIANCE,North
2021-12-01T05:03:59Z,2021,5,4,335.2111,335.2111,74.823,-2.402,1011.7,0.9,-999.0,yes,yes,no,300234068341290,BD2GHI,AOML,ALLIANCE,North
2021-12-01T06:00:00Z,2021,6,0,335.25,335.25,74.822,-2.395,1012.5,0.9,-999.0,yes,yes,no,300234068341290,BD2GHI,AOML,ALLIANCE,North
2021-12-01T07:00:02Z,2021,7,0,335.2917,335.2917,74.823,-2.392,1013.1,0.91,-999.0,yes,yes,no,300234068341290,BD2GHI,AOML,ALLIANCE,North
2021-12-01T07:59:57Z,2021,8,0,335.3333,335.3333,74.823,-2.395,1014.0,0.89,-999.0,yes,yes,no,300234068341290,BD2GHI,AOML,ALLIANCE,North